Weather History for KNCA - October, 2013

Change the Weather History Date:

Monday, October 14, 2013

  Actual Average Record
Temperature  
Mean Temperature 68 °F -  
Max Temperature 73 °F 72 °F 84 °F (2014)
Min Temperature 64 °F 52 °F 39 °F (2006)
Cooling Degree Days 2    
Growing Degree Days 18 (Base 50)    
Moisture  
Dew Point 64 °F    
Average Humidity 87    
Maximum Humidity 93    
Minimum Humidity 75    
Precipitation  
Precipitation 0.01 in - - ()
Sea Level Pressure  
Sea Level Pressure 30.12 in    
Wind  
Wind Speed 11 mph (NNE)    
Max Wind Speed 18 mph    
Max Gust Speed 25 mph    
Visibility 9 miles    
Events Rain    
Averages and records for this station are not official NWS values.
T = Trace of Precipitation, MM = Missing Value Source: NWS Daily Summary

Daily Weather History Graph

Daily Weather History Graph

Search for Another Location

Airport or City:

Trip Planner

Search our weather history database for the weather conditions in past years. The results will help you decide how hot, cold, wet, or windy it might be!

Date:

Astronomy

Oct. 14, 2013 Rise Set
Actual Time 7:14 AM EDT 6:36 PM EDT
Civil Twilight 6:49 AM EDT 7:01 PM EDT
Nautical Twilight 6:20 AM EDT 7:30 PM EDT
Astronomical Twilight 5:50 AM EDT 7:59 PM EDT
Moon 3:55 PM EDT (10/14) 2:39 AM EDT (10/14)
Length of Visible Light 12h 12m
Length of Day
11h 21m
Waxing Gibbous, 79% of the Moon is Illuminated
Oct 14
Waxing Gibbous
Oct 18
Full
Oct 26
Last Quarter
Nov 3
New
Nov 10
First Quarter

Hourly Weather History & Observations

Time (EDT) Temp. Dew Point Humidity Pressure Visibility Wind Dir Wind Speed Gust Speed Precip Events Conditions
12:33 AM 69.1 °F 66.9 °F 93% 30.10 in 9.0 mi NNE 9.2 mph - N/A   Overcast
12:56 AM 69.1 °F 66.9 °F 93% 30.11 in 8.0 mi North 8.1 mph - N/A   Overcast
1:09 AM 69.1 °F 66.9 °F 93% 30.10 in 8.0 mi NNE 8.1 mph - N/A   Overcast
1:56 AM 69.1 °F 66.9 °F 93% 30.10 in 9.0 mi NNE 8.1 mph - N/A   Overcast
2:56 AM 68.0 °F 66.0 °F 93% 30.10 in 9.0 mi North 8.1 mph - N/A   Overcast
3:34 AM 69.1 °F 66.9 °F 93% 30.09 in 9.0 mi North 8.1 mph - N/A   Overcast
3:56 AM 69.1 °F 66.9 °F 93% 30.09 in 9.0 mi North 10.4 mph - N/A   Overcast
4:56 AM 68.0 °F 66.0 °F 93% 30.10 in 10.0 mi NNE 10.4 mph - N/A   Overcast
5:26 AM 68.0 °F 66.0 °F 93% 30.10 in 10.0 mi NNE 11.5 mph - N/A   Overcast
5:56 AM 69.1 °F 66.0 °F 90% 30.11 in 9.0 mi North 12.7 mph - N/A   Overcast
6:54 AM 69.8 °F 66.2 °F 88% 30.12 in 10.0 mi NNE 11.5 mph - N/A   Overcast
6:56 AM 69.1 °F 66.0 °F 90% 30.12 in 10.0 mi NNE 10.4 mph - N/A   Overcast
7:42 AM 68.0 °F 64.9 °F 90% 30.12 in 9.0 mi North 12.7 mph - N/A   Overcast
7:56 AM 68.0 °F 64.9 °F 90% 30.13 in 9.0 mi North 10.4 mph - N/A   Overcast
8:20 AM 69.1 °F 64.9 °F 87% 30.13 in 9.0 mi NNE 15.0 mph - N/A   Overcast
8:56 AM 69.1 °F 64.9 °F 87% 30.15 in 10.0 mi NNE 12.7 mph - N/A   Overcast
9:56 AM 70.0 °F 64.9 °F 84% 30.15 in 10.0 mi NNE 13.8 mph - N/A   Overcast
10:56 AM 69.1 °F 64.9 °F 87% 30.15 in 7.0 mi North 10.4 mph - N/A   Overcast
11:30 AM 70.0 °F 64.9 °F 84% 30.14 in 10.0 mi NNE 12.7 mph - N/A   Overcast
11:56 AM 71.1 °F 64.9 °F 81% 30.15 in 10.0 mi NNE 11.5 mph 19.6 mph N/A   Overcast
12:56 PM 71.1 °F 64.9 °F 81% 30.14 in 10.0 mi NNE 13.8 mph - 0.00 in   Overcast
1:56 PM 69.1 °F 66.0 °F 90% 30.12 in 3.0 mi NNE 13.8 mph 21.9 mph 0.00 in Rain Light Rain
2:56 PM 71.1 °F 64.0 °F 78% 30.10 in 10.0 mi NE 18.4 mph 25.3 mph 0.01 in   Overcast
3:56 PM 71.1 °F 63.0 °F 75% 30.10 in 10.0 mi NNE 13.8 mph - 0.00 in Rain Light Rain
4:56 PM 70.0 °F 63.0 °F 78% 30.10 in 10.0 mi NNE 15.0 mph 23.0 mph 0.00 in   Overcast
5:56 PM 69.1 °F 62.1 °F 78% 30.12 in 10.0 mi NNE 10.4 mph - N/A   Overcast
6:56 PM 66.9 °F 62.1 °F 84% 30.14 in 10.0 mi NNE 12.7 mph - N/A   Overcast
7:56 PM 66.9 °F 62.1 °F 84% 30.14 in 10.0 mi NNE 12.7 mph - N/A   Overcast
8:56 PM 66.9 °F 61.0 °F 81% 30.13 in 10.0 mi North 13.8 mph - N/A   Overcast
9:56 PM 64.9 °F 60.1 °F 84% 30.13 in 10.0 mi North 11.5 mph - N/A   Partly Cloudy
10:32 PM 64.9 °F 60.1 °F 84% 30.12 in 10.0 mi North 9.2 mph - N/A   Mostly Cloudy
10:56 PM 64.9 °F 60.1 °F 84% 30.14 in 10.0 mi North 11.5 mph - N/A   Overcast
11:56 PM 64.0 °F 59.0 °F 84% 30.13 in 10.0 mi North 11.5 mph - N/A   Overcast